CAPE
0 0 0 0 0 0 0 0 0 0 0 0 0 0 0 0 0 0 582 931 1237 1295 1325 1324 1503 1715 1721 1575 1569 1713 1773 1793 1852 1753 1690 1643 1553 1478 1415 1401 1499 1508 1486 1173 1009 1140 1059 881 1004
0 0 0 0 0 0 0 0 0 0 0 0 0 0 0 20 783 742 910 1338 1355 1387 1347 1353 1540 1699 1830 1743 1646 1833 1917 1897 1852 1786 1670 1618 1515 1446 1427 1391 1427 1426 1495 1338 1202 1143 974 895 893
0 0 0 0 0 0 0 0 0 0 0 0 0 0 0 143 921 851 790 1519 1327 1520 1440 1363 1556 1653 1820 1843 1716 1865 1864 1846 1760 1720 1712 1646 1557 1419 1429 1446 1413 1456 1439 1364 1175 1105 838 808 545
0 0 0 0 0 0 0 0 0 0 0 0 0 0 0 279 788 951 985 1551 1445 1356 1592 1495 1475 1599 1847 1908 1771 1854 1847 1666 1593 1619 1711 1686 1596 1685 1552 1389 1457 1414 1108 1360 1287 1043 802 516 283
0 0 0 0 0 0 0 0 0 0 0 0 0 0 0 131 771 949 1265 1543 1532 1317 1460 1682 1417 1524 1843 1995 1891 1793 1794 1670 1530 1571 1549 1528 1803 1822 1632 1395 1302 1177 1232 1251 1133 804 626 392 135
0 0 0 0 0 0 0 0 0 0 0 0 0 0 14 222 671 870 1086 1425 1318 1283 1173 1386 1688 1525 1778 1905 1764 1357 1581 1619 1554 1554 1545 1531 1704 1445 1548 1454 1249 1045 886 849 694 496 412 167 42
0 0 0 0 0 0 0 0 0 0 0 0 0 2 42 524 749 719 760 704 945 1130 1262 1364 1680 1956 1769 1792 1660 1235 1067 989 917 665 359 380 637 794 1054 1053 918 912 853 641 413 305 42 86 11
0 0 0 0 0 0 0 0 0 0 0 0 0 40 79 492 587 562 566 1179 1131 1122 1262 1354 1303 1480 1517 1856 1540 1187 889 527 308 109 24 4 270 367 381 586 748 599 725 426 268 58 42 60 2
0 0 0 0 0 0 0 0 0 0 0 0 0 62 26 398 589 591 787 1043 1129 1134 1139 1130 1085 1057 1062 1231 1274 1119 773 468 182 178 132 71 149 200 222 472 566 407 366 254 122 12 4 6 0
0 0 0 0 0 0 0 0 0 0 0 0 0 227 164 406 607 577 681 808 899 863 733 698 865 945 721 426 1039 958 764 463 332 96 58 41 118 116 143 246 322 253 220 153 47 3 4 0 0
0 0 0 0 0 0 0 0 0 0 0 0 0 57 412 480 634 591 687 692 711 473 381 500 462 680 485 307 595 698 602 159 112 84 57 53 27 139 245 126 194 138 135 4 0 0 0 0 0
0 0 0 0 0 0 0 0 0 0 0 0 0 50 512 576 627 623 678 633 537 474 431 419 431 427 314 706 409 424 334 214 66 95 53 30 55 42 99 95 94 85 51 8 0 0 0 0 0
0 0 0 0 0 0 0 0 0 0 0 0 0 511 627 597 525 466 489 536 574 549 551 443 338 246 141 171 226 229 195 101 60 42 39 30 2 55 141 65 66 22 30 3 0 0 0 0 0
0 0 0 0 0 0 0 0 0 0 0 0 0 636 682 636 596 608 281 419 576 628 472 485 157 119 76 7 11 0 0 0 0 11 35 44 21 133 99 40 3 2 13 5 0 0 0 0 0
0 0 0 0 0 0 0 0 0 0 0 0 0 96 680 684 662 330 281 230 550 645 278 224 166 126 109 29 1 0 0 0 0 2 1 12 26 147 72 41 4 0 0 0 0 0 0 0 0
0 0 0 0 0 0 0 0 0 0 0 0 0 0 188 480 370 222 240 354 647 389 76 117 89 143 51 1 0 1 2 4 7 13 10 4 53 83 52 75 6 0 0 0 0 0 0 0 0
0 0 0 0 0 0 0 0 0 0 0 0 0 0 0 157 225 306 220 399 397 66 60 83 98 53 8 0 0 3 0 2 22 8 0 0 11 11 28 85 1 0 0 0 0 0 0 0 0
0 0 0 0 0 0 0 0 0 0 0 0 0 0 0 6 124 278 135 197 109 41 68 51 14 5 2 0 0 1 8 6 23 2 7 5 62 56 62 73 0 0 0 0 0 0 0 0 0
0 0 0 0 0 0 0 0 0 0 0 0 0 0 0 0 2 115 114 90 75 44 63 30 1 0 3 0 4 9 0 3 28 10 0 12 49 91 81 27 0 0 0 0 0 0 0 0 0
0 0 0 0 0 0 0 0 0 0 0 0 0 0 0 0 0 14 109 94 70 66 58 19 0 0 0 0 0 2 6 87 61 55 40 48 50 19 21 4 0 0 0 0 0 0 0 0 0
0 0 0 0 0 0 0 0 0 0 0 0 0 0 0 0 0 21 112 100 85 79 82 49 0 0 0 0 2 1 2 53 49 63 60 65 14 14 37 6 0 0 0 0 0 0 0 0 1
0 0 0 0 0 0 0 0 0 0 0 0 0 0 0 0 0 40 109 112 118 107 115 78 3 0 0 0 1 0 0 0 43 42 34 56 78 30 27 33 7 18 1 6 4 14 12 5 11
0 0 0 0 0 0 0 0 0 0 0 0 0 0 0 0 0 13 121 155 128 127 123 94 22 0 0 0 0 0 0 0 0 4 0 48 45 45 43 55 2 24 2 7 50 82 52 57 47
0 0 0 0 0 0 0 0 0 0 0 0 1 0 0 0 0 4 85 151 153 142 132 92 31 2 0 0 0 0 1 0 0 3 4 10 2 20 34 22 9 11 5 38 25 97 93 104 61
0 0 0 0 0 0 0 0 0 0 0 0 0 0 0 0 0 0 40 108 137 166 138 94 30 1 0 0 0 0 0 0 0 1 0 3 21 9 35 19 11 9 10 15 44 59 87 81 51
0 0 0 0 0 1 0 0 0 0 0 0 0 0 0 0 0 0 9 74 125 187 154 100 35 0 0 0 0 0 0 0 0 0 0 0 0 17 5 6 14 10 8 7 40 47 55 31 33
0 0 0 0 0 0 0 0 0 0 0 0 0 0 0 0 0 0 5 54 105 224 159 108 39 0 0 2 1 0 0 0 0 0 0 7 8 1 4 19 10 14 40 26 15 22 15 21 27
0 0 0 0 0 0 0 0 0 0 0 0 0 0 0 0 0 0 7 54 121 228 148 118 48 0 0 1 4 0 0 0 0 0 0 0 0 0 0 8 10 13 27 19 16 14 17 29 2
0 0 0 0 0 0 0 0 0 0 1 0 0 0 0 0 2 1 9 46 122 159 148 112 59 18 0 0 2 3 0 0 0 0 0 0 0 0 0 9 4 18 28 14 17 20 10 1 0
0 0 0 0 0 0 0 0 0 0 0 0 0 0 0 0 7 6 12 55 119 165 136 157 103 30 0 0 0 4 0 0 0 1 0 0 0 0 0 0 3 1 0 5 6 12 13 20 11
CIN
-0 -0 -0 -0 -0 -0 -0 -0 -0 -0 -0 -0 -0 -0 -0 -0 -0 -0 -236 -272 -138 -232 -203 -186 -153 -107 -60 -46 -46 -58 -45 -16 -3 -11 -11 -7 -6 -5 -2 -0 -0 -0 -0 -0 -0 -0 -0 -0 -0
-0 -0 -0 -0 -0 -0 -0 -0 -0 -0 -0 -0 -0 -0 -0 -173 -276 -225 -230 -193 -168 -236 -206 -179 -130 -100 -72 -45 -38 -18 -14 -6 -2 -4 -5 -1 -3 -1 -0 -0 -0 -0 -0 -0 -0 -0 -0 -0 -0
-0 -0 -0 -0 -0 -0 -0 -0 -0 -0 -0 -0 -0 -0 -0 -173 -242 -253 -199 -196 -143 -204 -183 -167 -115 -88 -33 -29 -34 -16 -15 -23 -20 -7 -5 -5 -0 -1 -0 -0 -1 -0 -0 -0 -0 -0 -0 -0 -0
-0 -0 -0 -0 -0 -0 -0 -0 -0 -0 -0 -0 -0 -0 -0 -206 -277 -213 -269 -203 -151 -226 -151 -139 -114 -71 -24 -14 -17 -14 -10 -12 -18 -13 -0 -0 -0 -0 -0 -1 -1 -0 -0 -0 -0 -0 -0 -1 -30
-0 -0 -0 -0 -0 -0 -0 -0 -0 -0 -0 -0 -0 -0 -0 -257 -188 -175 -244 -213 -159 -158 -159 -98 -113 -69 -18 -3 -8 -12 -4 -4 -2 -3 -0 -0 -0 -0 -0 -1 -0 -0 -1 -1 -0 -0 -2 -26 -67
-0 -0 -0 -0 -0 -0 -0 -0 -0 -0 -0 -0 -0 -0 -197 -280 -236 -196 -201 -176 -171 -177 -136 -91 -52 -39 -8 -7 -10 -40 -22 -4 -1 -0 -0 -0 -0 -0 -0 -1 -1 -1 -2 -2 -0 -0 -35 -85 -128
-0 -0 -0 -0 -0 -0 -0 -0 -0 -0 -0 -0 -0 -42 -206 -247 -181 -176 -211 -196 -231 -200 -152 -89 -24 -1 -1 -0 -13 -37 -38 -28 -14 -3 -4 -5 -10 -6 -3 -3 -1 -3 -2 -0 -0 -11 -147 -111 -142
-0 -0 -0 -0 -0 -0 -0 -0 -0 -0 -0 -0 -0 -183 -208 -198 -228 -233 -258 -191 -182 -159 -117 -82 -51 -10 -2 -0 -2 -12 -7 -5 -35 -6 -1 -61 -8 -11 -18 -15 -3 -5 -0 -0 -0 -80 -152 -99 -70
-0 -0 -0 -0 -0 -0 -0 -0 -0 -0 -0 -0 -0 -191 -195 -163 -271 -292 -280 -237 -216 -173 -130 -98 -78 -43 -15 -6 -3 -7 -3 -23 -37 -110 -35 -57 -2 -13 -9 -6 -12 -28 -7 -1 -19 -118 -119 -176 -0
-0 -0 -0 -0 -0 -0 -0 -0 -0 -0 -0 -0 -0 -255 -427 -199 -262 -346 -306 -281 -238 -217 -197 -182 -108 -37 -28 -42 -0 -0 -1 -8 -14 -32 -49 -67 -45 -18 -11 -15 -46 -27 -19 -10 -46 -43 -46 -0 -0
-0 -0 -0 -0 -0 -0 -0 -0 -0 -0 -0 -0 -0 -70 -291 -294 -263 -340 -295 -270 -245 -253 -263 -212 -164 -36 -26 -25 -0 -0 -0 -26 -33 -36 -21 -11 -58 -8 -0 -23 -10 -25 -23 -3 -2 -0 -0 -0 -0
-0 -0 -0 -0 -0 -0 -0 -0 -0 -0 -0 -0 -0 -94 -227 -257 -241 -268 -313 -262 -250 -219 -225 -232 -159 -69 -52 -0 -0 -0 -0 -1 -24 -11 -8 -5 -33 -41 -39 -2 -12 -5 -28 -76 -0 -0 -0 -0 -0
-0 -0 -0 -0 -0 -0 -0 -0 -0 -0 -0 -0 -0 -250 -241 -233 -195 -185 -215 -259 -255 -250 -224 -227 -195 -140 -143 -85 -35 -4 -0 -1 -10 -8 -2 -3 -12 -73 -31 -0 -5 -22 -42 -58 -0 -0 -0 -0 -0
-0 -0 -0 -0 -0 -0 -0 -0 -0 -0 -0 -0 -0 -193 -193 -207 -189 -144 -199 -248 -270 -232 -242 -224 -282 -246 -209 -273 -138 -0 -0 -0 -0 -31 -7 -3 -28 -11 -7 -24 -4 -63 -63 -79 -0 -0 -0 -0 -0
-0 -0 -0 -0 -0 -0 -0 -0 -0 -0 -0 -0 -0 -273 -136 -142 -134 -173 -182 -407 -322 -240 -276 -305 -267 -254 -209 -246 -149 -0 -0 -0 -0 -8 -13 -23 -15 -1 -7 -40 -60 -1 -77 -0 -0 -0 -0 -0 -0
-0 -0 -0 -0 -0 -0 -0 -0 -0 -0 -0 -0 -0 -0 -185 -117 -124 -149 -151 -342 -297 -301 -395 -359 -298 -239 -255 -1 -0 -0 -0 -0 -0 -21 -1 -0 -0 -4 -1 -10 -66 -0 -0 -0 -0 -0 -0 -0 -0
-0 -0 -0 -0 -0 -0 -0 -0 -0 -0 -0 -0 -0 -0 -0 -106 -133 -127 -134 -331 -334 -398 -412 -370 -278 -295 -354 -0 -0 -0 -0 -0 -0 -0 -0 -1 -0 -0 -15 -29 -20 -0 -0 -0 -0 -0 -0 -0 -0
-0 -0 -0 -0 -0 -0 -0 -0 -0 -0 -0 -0 -0 -0 -0 -34 -127 -146 -163 -337 -392 -430 -409 -385 -353 -351 -10 -0 -0 -0 -11 -0 -1 -3 -0 -0 -0 -0 -12 -24 -0 -0 -0 -0 -0 -0 -0 -0 -0
-0 -0 -0 -0 -0 -0 -0 -0 -0 -0 -0 -0 -0 -0 -0 -0 -44 -166 -153 -155 -336 -49 -413 -388 -100 -0 -15 -0 -0 -0 -0 -0 -22 -0 -0 -0 -1 -3 -11 -60 -0 -0 -0 -0 -0 -0 -0 -0 -0
-0 -0 -0 -0 -0 -0 -0 -0 -0 -0 -0 -0 -0 -0 -0 -0 -0 -226 -147 -124 -84 -53 -47 -317 -0 -0 -0 -0 -0 -0 -0 -80 -3 -0 -2 -4 -21 -52 -21 -22 -0 -0 -0 -0 -0 -0 -0 -0 -0
-0 -0 -0 -0 -0 -0 -0 -0 -0 -0 -0 -0 -0 -0 -0 -0 -0 -274 -143 -139 -83 -64 -68 -81 -0 -0 -0 -0 -2 -0 -0 -0 -0 -0 -0 -0 -3 -5 -11 -9 -0 -0 -0 -0 -0 -0 -0 -0 -15
-0 -0 -0 -0 -0 -0 -0 -0 -0 -0 -0 -0 -0 -0 -0 -0 -0 -280 -162 -137 -103 -51 -91 -69 -54 -0 -0 -0 -0 -0 -0 -1 -3 -3 -8 -0 -0 -1 -0 -2 -44 -122 -128 -153 -146 -81 -48 -80 -54
-0 -0 -0 -0 -0 -0 -0 -0 -0 -0 -0 -0 -0 -0 -0 -0 -0 -260 -190 -156 -114 -78 -81 -88 -74 -0 -0 -0 -0 -0 -0 -0 -0 -0 -0 -0 -2 -1 -0 -0 -0 -28 -0 -40 -11 -7 -13 -19 -4
-0 -0 -0 -0 -0 -0 -0 -0 -0 -0 -0 -0 -10 -0 -0 -0 -0 -218 -229 -143 -142 -86 -76 -72 -120 -0 -0 -0 -0 -0 -0 -0 -0 -0 -0 -0 -3 -8 -0 -0 -0 -0 -1 -8 -31 -3 -11 -10 -3
-0 -0 -0 -0 -0 -0 -0 -0 -0 -0 -0 -0 -0 -0 -0 -0 -0 -58 -223 -191 -166 -105 -89 -69 -88 -0 -0 -0 -0 -0 -0 -0 -0 -0 -0 -0 -0 -2 -1 -0 -0 -0 -0 -3 -5 -9 -8 -7 -2
-0 -0 -0 -0 -0 -1 -0 -0 -0 -0 -0 -0 -0 -0 -0 -0 -0 -0 -205 -231 -172 -98 -74 -66 -193 -0 -0 -0 -0 -0 -0 -0 -0 -0 -0 -0 -0 -5 -5 -0 -0 -0 -0 -3 -11 -17 -19 -3 -8
-0 -0 -0 -0 -0 -0 -0 -0 -0 -8 -0 -0 -0 -0 -0 -0 -0 -208 -261 -225 -177 -91 -70 -52 -162 -0 -0 -0 -0 -0 -0 -0 -0 -0 -0 -0 -0 -1 -1 -0 -0 -1 -0 -3 -0 -0 -0 -0 -0
-0 -0 -0 -0 -0 -0 -0 -0 -0 -0 -0 -0 -0 -0 -0 -0 -179 -0 -369 -227 -126 -71 -37 -47 -84 -0 -0 -0 -0 -0 -0 -0 -0 -0 -0 -0 -0 -0 -0 -19 -18 -12 -0 -1 -0 -0 -0 -0 -0
-0 -0 -0 -0 -0 -0 -0 -0 -0 -0 -0 -0 -0 -0 -0 -0 -398 -369 -268 -152 -95 -39 -25 -23 -73 -249 -0 -0 -0 -0 -0 -0 -0 -0 -0 -0 -0 -0 -0 -3 -2 -0 -0 -0 -0 -0 -0 -4 -0
-0 -0 -0 -0 -0 -0 -0 -0 -0 -0 -0 -0 -0 -0 -0 -0 -340 -276 -205 -106 -53 -30 -41 -27 -43 -90 -0 -0 -0 -0 -0 -0 -0 -0 -0 -0 -0 -0 -0 -0 -3 -0 -0 -0 -2 -1 -1 -0 -0
Wind_Speed
nan nan nan nan nan nan nan nan nan nan nan nan nan nan nan nan nan nan 30 34 39 39 37 35 34 35 32 33 35 39 40 40 41 43 44 44 44 46 47 43 39 38 37 38 38 36 34 35 36
nan nan nan nan nan nan nan nan nan nan nan nan nan nan nan nan 28 30 33 33 39 39 38 32 35 35 33 31 34 36 40 41 41 41 41 42 44 44 42 42 39 36 35 36 37 35 35 36 36
nan nan nan nan nan nan nan nan nan nan nan nan nan nan nan 25 27 27 30 40 41 40 37 32 35 32 30 33 35 38 41 42 41 40 42 43 43 44 40 40 37 34 32 32 34 36 35 36 35
nan nan nan nan nan nan nan nan nan nan nan nan nan nan nan 26 28 26 38 39 38 38 34 31 35 32 31 35 36 37 37 38 39 41 41 42 43 44 43 36 36 34 32 32 34 38 36 36 36
nan nan nan nan nan nan nan nan nan nan nan nan nan nan nan 22 26 33 34 39 37 35 30 29 31 33 34 34 35 37 38 37 39 43 42 44 41 43 42 39 34 33 34 32 35 35 37 36 39
nan nan nan nan nan nan nan nan nan nan nan nan nan nan nan 25 31 28 31 36 35 37 29 25 28 28 30 34 34 36 37 40 42 48 48 47 47 39 40 38 37 36 36 42 35 32 38 38 nan
nan nan nan nan nan nan nan nan nan nan nan nan nan nan nan 30 23 29 33 35 36 37 35 28 24 26 28 26 31 34 36 35 39 54 67 41 36 28 44 37 34 36 39 41 37 35 nan nan nan
nan nan nan nan nan nan nan nan nan nan nan nan nan nan nan 33 30 30 31 33 37 36 38 35 29 29 33 30 31 36 48 51 53 55 nan nan 39 34 27 26 26 34 37 36 34 nan nan nan nan
nan nan nan nan nan nan nan nan nan nan nan nan nan nan nan 45 36 27 28 28 31 33 35 28 25 27 29 33 38 40 48 43 45 56 33 nan 26 25 20 25 32 27 35 35 35 nan nan nan nan
nan nan nan nan nan nan nan nan nan nan nan nan nan 46 45 42 31 28 29 31 30 31 28 26 28 27 27 29 35 36 36 29 27 nan nan nan 24 24 19 23 30 26 31 32 nan nan nan nan nan
nan nan nan nan nan nan nan nan nan nan nan nan nan nan 43 32 22 20 20 27 28 27 24 26 30 26 24 24 28 32 30 27 22 nan nan nan nan 28 32 27 25 24 27 nan nan nan nan nan nan
nan nan nan nan nan nan nan nan nan nan nan nan nan nan 50 25 19 18 21 25 26 23 21 25 27 24 20 17 19 19 20 20 nan nan nan nan nan nan nan nan nan nan nan nan nan nan nan nan nan
nan nan nan nan nan nan nan nan nan nan nan nan nan 54 43 21 14 14 19 24 28 20 21 26 24 22 16 15 16 16 17 17 nan nan nan nan nan nan 33 nan nan nan nan nan nan nan nan nan nan
nan nan nan nan nan nan nan nan nan nan nan nan nan 46 42 23 14 16 21 24 28 20 20 23 22 20 nan nan nan nan nan nan nan nan nan nan nan 28 nan nan nan nan nan nan nan nan nan nan nan
nan nan nan nan nan nan nan nan nan nan nan nan nan nan 35 22 21 19 22 25 29 19 21 22 22 16 16 nan nan nan nan nan nan nan nan nan nan 43 nan nan nan nan nan nan nan nan nan nan nan
nan nan nan nan nan nan nan nan nan nan nan nan nan nan 31 27 14 20 20 23 25 19 nan 22 nan 18 nan nan nan nan nan nan nan nan nan nan nan nan nan nan nan nan nan nan nan nan nan nan nan
nan nan nan nan nan nan nan nan nan nan nan nan nan nan nan 29 17 20 24 23 26 nan nan nan nan nan nan nan nan nan nan nan nan nan nan nan nan nan nan nan nan nan nan nan nan nan nan nan nan
nan nan nan nan nan nan nan nan nan nan nan nan nan nan nan nan 13 23 26 24 26 nan nan nan nan nan nan nan nan nan nan nan nan nan nan nan nan nan nan nan nan nan nan nan nan nan nan nan nan
nan nan nan nan nan nan nan nan nan nan nan nan nan nan nan nan nan 30 22 nan nan nan nan nan nan nan nan nan nan nan nan nan nan nan nan nan nan nan nan nan nan nan nan nan nan nan nan nan nan
nan nan nan nan nan nan nan nan nan nan nan nan nan nan nan nan nan nan 21 nan nan nan nan nan nan nan nan nan nan nan nan nan nan nan nan nan nan nan nan nan nan nan nan nan nan nan nan nan nan
nan nan nan nan nan nan nan nan nan nan nan nan nan nan nan nan nan nan 18 16 nan nan nan nan nan nan nan nan nan nan nan nan nan nan nan nan nan nan nan nan nan nan nan nan nan nan nan nan nan
nan nan nan nan nan nan nan nan nan nan nan nan nan nan nan nan nan nan 16 11 26 17 13 nan nan nan nan nan nan nan nan nan nan nan nan nan nan nan nan nan nan nan nan nan nan nan nan nan nan
nan nan nan nan nan nan nan nan nan nan nan nan nan nan nan nan nan nan 10 13 25 19 16 nan nan nan nan nan nan nan nan nan nan nan nan nan nan nan nan nan nan nan nan nan nan nan nan nan nan
nan nan nan nan nan nan nan nan nan nan nan nan nan nan nan nan nan nan nan 14 21 22 17 nan nan nan nan nan nan nan nan nan nan nan nan nan nan nan nan nan nan nan nan nan nan nan nan 31 nan
nan nan nan nan nan nan nan nan nan nan nan nan nan nan nan nan nan nan nan 15 15 23 19 nan nan nan nan nan nan nan nan nan nan nan nan nan nan nan nan nan nan nan nan nan nan nan nan nan nan
nan nan nan nan nan nan nan nan nan nan nan nan nan nan nan nan nan nan nan nan 12 21 23 17 nan nan nan nan nan nan nan nan nan nan nan nan nan nan nan nan nan nan nan nan nan nan nan nan nan
nan nan nan nan nan nan nan nan nan nan nan nan nan nan nan nan nan nan nan nan 16 22 24 18 nan nan nan nan nan nan nan nan nan nan nan nan nan nan nan nan nan nan nan nan nan nan nan nan nan
nan nan nan nan nan nan nan nan nan nan nan nan nan nan nan nan nan nan nan nan 17 24 25 20 nan nan nan nan nan nan nan nan nan nan nan nan nan nan nan nan nan nan nan nan nan nan nan nan nan
nan nan nan nan nan nan nan nan nan nan nan nan nan nan nan nan nan nan nan nan 29 28 23 23 nan nan nan nan nan nan nan nan nan nan nan nan nan nan nan nan nan nan nan nan nan nan nan nan nan
nan nan nan nan nan nan nan nan nan nan nan nan nan nan nan nan nan nan nan nan 33 31 28 26 26 nan nan nan nan nan nan nan nan nan nan nan nan nan nan nan nan nan nan nan nan nan nan nan nan
Wind_Direction
nan nan nan nan nan nan nan nan nan nan nan nan nan nan nan nan nan nan 292 304 299 300 298 305 306 305 298 299 298 298 299 297 295 293 291 290 286 280 277 272 268 266 269 274 277 276 273 273 269
nan nan nan nan nan nan nan nan nan nan nan nan nan nan nan nan 289 292 286 294 305 298 298 303 307 305 300 299 299 299 297 294 290 288 289 290 287 283 278 273 266 264 267 270 272 269 268 267 263
nan nan nan nan nan nan nan nan nan nan nan nan nan nan nan 293 289 300 298 309 303 297 302 302 307 302 296 295 294 298 294 291 291 290 290 289 290 288 284 278 270 266 266 268 268 263 266 262 263
nan nan nan nan nan nan nan nan nan nan nan nan nan nan nan 288 296 305 297 302 303 295 296 298 305 301 295 295 294 294 291 287 288 287 286 286 287 286 284 277 271 267 266 269 268 271 269 264 259
nan nan nan nan nan nan nan nan nan nan nan nan nan nan nan 270 278 287 302 302 304 291 287 288 300 302 301 298 297 291 288 287 287 287 286 283 283 285 283 281 271 264 262 262 266 270 263 261 258
nan nan nan nan nan nan nan nan nan nan nan nan nan nan nan 273 286 291 297 300 298 294 292 293 307 307 305 306 301 295 292 290 289 286 276 275 272 270 276 273 265 260 260 260 264 266 254 251 nan
nan nan nan nan nan nan nan nan nan nan nan nan nan nan nan 277 285 291 289 295 291 288 293 287 285 291 294 293 294 289 288 290 282 271 254 261 262 242 269 264 265 256 254 258 257 260 nan nan nan
nan nan nan nan nan nan nan nan nan nan nan nan nan nan nan 280 289 277 278 289 290 290 295 295 290 286 282 280 283 276 274 280 280 268 nan nan 235 250 261 267 268 256 255 255 254 nan nan nan nan
nan nan nan nan nan nan nan nan nan nan nan nan nan nan nan 275 282 284 283 283 289 293 297 298 302 297 283 273 275 284 288 292 292 290 276 nan 230 242 228 266 259 265 256 257 256 nan nan nan nan
nan nan nan nan nan nan nan nan nan nan nan nan nan 251 262 283 292 311 299 302 297 296 299 304 304 301 290 283 275 270 279 274 278 nan nan nan 253 251 225 230 256 256 256 259 nan nan nan nan nan
nan nan nan nan nan nan nan nan nan nan nan nan nan nan 264 276 293 302 303 297 303 292 293 308 307 303 300 297 282 265 259 265 260 nan nan nan nan 231 228 222 226 246 251 nan nan nan nan nan nan
nan nan nan nan nan nan nan nan nan nan nan nan nan nan 269 278 292 319 314 295 295 299 299 302 302 299 298 304 291 277 262 256 nan nan nan nan nan nan nan nan nan nan nan nan nan nan nan nan nan
nan nan nan nan nan nan nan nan nan nan nan nan nan 265 274 278 292 295 293 294 296 300 296 301 305 298 293 299 290 286 279 272 nan nan nan nan nan nan 208 nan nan nan nan nan nan nan nan nan nan
nan nan nan nan nan nan nan nan nan nan nan nan nan 267 277 278 291 279 296 297 302 295 292 301 311 303 nan nan nan nan nan nan nan nan nan nan nan 201 nan nan nan nan nan nan nan nan nan nan nan
nan nan nan nan nan nan nan nan nan nan nan nan nan nan 279 285 271 327 302 295 304 297 290 302 308 308 308 nan nan nan nan nan nan nan nan nan nan 202 nan nan nan nan nan nan nan nan nan nan nan
nan nan nan nan nan nan nan nan nan nan nan nan nan nan 281 274 302 301 294 289 291 287 nan 298 nan 301 nan nan nan nan nan nan nan nan nan nan nan nan nan nan nan nan nan nan nan nan nan nan nan
nan nan nan nan nan nan nan nan nan nan nan nan nan nan nan 273 267 272 287 294 295 nan nan nan nan nan nan nan nan nan nan nan nan nan nan nan nan nan nan nan nan nan nan nan nan nan nan nan nan
nan nan nan nan nan nan nan nan nan nan nan nan nan nan nan nan 289 282 288 290 300 nan nan nan nan nan nan nan nan nan nan nan nan nan nan nan nan nan nan nan nan nan nan nan nan nan nan nan nan
nan nan nan nan nan nan nan nan nan nan nan nan nan nan nan nan nan 263 283 nan nan nan nan nan nan nan nan nan nan nan nan nan nan nan nan nan nan nan nan nan nan nan nan nan nan nan nan nan nan
nan nan nan nan nan nan nan nan nan nan nan nan nan nan nan nan nan nan 280 nan nan nan nan nan nan nan nan nan nan nan nan nan nan nan nan nan nan nan nan nan nan nan nan nan nan nan nan nan nan
nan nan nan nan nan nan nan nan nan nan nan nan nan nan nan nan nan nan 286 321 nan nan nan nan nan nan nan nan nan nan nan nan nan nan nan nan nan nan nan nan nan nan nan nan nan nan nan nan nan
nan nan nan nan nan nan nan nan nan nan nan nan nan nan nan nan nan nan 290 318 314 309 296 nan nan nan nan nan nan nan nan nan nan nan nan nan nan nan nan nan nan nan nan nan nan nan nan nan nan
nan nan nan nan nan nan nan nan nan nan nan nan nan nan nan nan nan nan 320 333 302 299 299 nan nan nan nan nan nan nan nan nan nan nan nan nan nan nan nan nan nan nan nan nan nan nan nan nan nan
nan nan nan nan nan nan nan nan nan nan nan nan nan nan nan nan nan nan nan 261 285 292 294 nan nan nan nan nan nan nan nan nan nan nan nan nan nan nan nan nan nan nan nan nan nan nan nan 244 nan
nan nan nan nan nan nan nan nan nan nan nan nan nan nan nan nan nan nan nan 277 297 299 293 nan nan nan nan nan nan nan nan nan nan nan nan nan nan nan nan nan nan nan nan nan nan nan nan nan nan
nan nan nan nan nan nan nan nan nan nan nan nan nan nan nan nan nan nan nan nan 297 296 297 296 nan nan nan nan nan nan nan nan nan nan nan nan nan nan nan nan nan nan nan nan nan nan nan nan nan
nan nan nan nan nan nan nan nan nan nan nan nan nan nan nan nan nan nan nan nan 289 289 297 290 nan nan nan nan nan nan nan nan nan nan nan nan nan nan nan nan nan nan nan nan nan nan nan nan nan
nan nan nan nan nan nan nan nan nan nan nan nan nan nan nan nan nan nan nan nan 284 278 282 279 nan nan nan nan nan nan nan nan nan nan nan nan nan nan nan nan nan nan nan nan nan nan nan nan nan
nan nan nan nan nan nan nan nan nan nan nan nan nan nan nan nan nan nan nan nan 245 246 255 257 nan nan nan nan nan nan nan nan nan nan nan nan nan nan nan nan nan nan nan nan nan nan nan nan nan
nan nan nan nan nan nan nan nan nan nan nan nan nan nan nan nan nan nan nan nan 251 249 251 258 258 nan nan nan nan nan nan nan nan nan nan nan nan nan nan nan nan nan nan nan nan nan nan nan nan